Regional Weather Roundup
Issued by NWS

Home | Current Version | Previous Version | Text Only | Print | Product List | Glossary Off
Versions: 1 2 3 4 5 6 7 8 9 10 11 12 13 14 15 16 17 18 19 20 21 22 23 24 25 26 27 28 29 30 31 32 33 34 35 36 37 38 39 40 41 42 43 44 45 46 47 48 49 50

000
ASUS43 KLSX 061310
RWRMO

WEATHER SUMMARY FOR MISSOURI
NATIONAL WEATHER SERVICE SPRINGFIELD MO
700 AM CST TUE DEC 06 2016

NOTE: "FAIR" INDICATES FEW OR NO CLOUDS BELOW 12,000 FEET WITH NO
       SIGNIFICANT WEATHER AND/OR OBSTRUCTIONS TO VISIBILITY.
       CURRENT SKY AND/OR WEATHER CONDITIONS ARE NOT AVAILABLE FOR
       CHILLICOTHE AND FARMINGTON.

MOZ001>031-035>038-043-044-053-054-061400-
...NORTHERN AND WESTERN MISSOURI...

CITY           SKY/WX    TMP DP  RH WIND       PRES   REMARKS
KANSAS CTY INT MOCLDY    31  22  69 NW14G24   29.96R WCI  21
KANSAS C DTWN  CLOUDY    35  28  75 NW16      29.96R WCI  25
LEE`S SUMMIT   CLOUDY    34  26  72 NW14G24   29.93R WCI  25
ST JOSEPH      CLOUDY    31  21  66 NW17G25   29.98R WCI  19
CHILLICOTHE      N/A     35  30  82 NW12G23   29.91R WCI  27
KIRKSVILLE     CLOUDY    37  36  96 NW9       29.83R FOG

$$
MOZ066>068-077>081-088>096-101>105-061400-
...SOUTHWEST MISSOURI...

CITY           SKY/WX    TMP DP  RH WIND       PRES   REMARKS
SPRINGFIELD    MOCLDY    37  35  92 NW10      29.83R WCI  30
JOPLIN         CLOUDY    37  37 100 N13       29.91R WCI  29
BRANSON        PTCLDY    37  37 100 NW10      29.83R

$$
MOZ032>034-039>042-045>050-055>058-069>072-061400-
...CENTRAL MISSOURI...

CITY           SKY/WX    TMP DP  RH WIND       PRES   REMARKS
COLUMBIA       FOG       32  31  96 N9        29.82R VSB<1/4 WCI  24
JEFFERSON CITY FOG       31  31 100 NW5       29.83R VSB 1/2 WCI  26
ROLLA          SNOW      34  34 100 NW7       29.79R VSB<1/4 WCI  28
SEDALIA        CLOUDY    33  32  96 NW14      29.88R FOG     WCI  23
WHITEMAN AFB   CLOUDY    35  35 100 N16       29.87R WCI  25
WARRENSBURG    CLOUDY    34  32  93 NW17G25   29.90R WCI  23
OSAGE BEACH    CLEAR     35  34  96 NW7       29.83R WCI  29

$$
MOZ051-052-059>065-061400-
...EAST CENTRAL MISSOURI...

CITY           SKY/WX    TMP DP  RH WIND       PRES   REMARKS
ST LOUIS INTL  CLOUDY    38  34  85 N10       29.79R FOG
SPIRIT OF STL  CLOUDY    38  36  92 NW6       29.81R
ST CHARLES     CLOUDY    38  36  92 N8        29.80R

$$
MOZ072>076-082>087-097>100-106>115-061400-
...SOUTH CENTRAL AND SOUTHEAST MISSOURI...

CITY           SKY/WX    TMP DP  RH WIND       PRES   REMARKS
CAPE GIRARDEAU CLOUDY    41  38  89 N7        29.72R
FARMINGTON     CLOUDY    38  37  97 NW9       29.76R FOG
POPLAR BLUFF   CLOUDY    41  40  96 NW7       29.75R
WEST PLAINS    CLOUDY    41  38  89 N15G22    29.78R

$$




USA.gov is the U.S. government's official web portal to all federal, state and local government web resources and services.